SCP
1 1 1 1 0 0 0 0 1 0 0 0 0 0 0 0 0 0 0 0 0 0 0 1 1 1 1 1 0 0 0 0 0 1 1 1 1 1 1 1 0 1 1 1 1 1 1 1 1
1 1 1 1 0 0 0 1 1 1 0 0 0 0 0 0 0 0 0 0 1 0 0 1 1 1 1 1 1 0 0 0 0 1 1 1 1 1 1 1 0 1 1 1 1 1 1 1 1
1 1 1 1 0 0 0 1 1 1 0 0 0 0 0 0 0 0 0 1 1 1 1 1 1 1 1 1 1 1 1 1 0 1 1 1 1 1 1 1 0 1 1 1 1 1 0 0 1
1 1 1 0 0 0 1 1 1 1 0 0 0 0 0 0 0 0 0 1 1 1 1 1 1 1 1 1 1 1 1 1 1 1 1 1 1 1 1 1 0 0 1 1 1 1 0 0 0
1 1 1 0 0 0 1 1 1 1 0 0 0 0 0 0 0 0 0 1 1 1 1 1 1 2 1 1 1 1 1 1 1 1 1 1 1 1 1 1 1 0 1 1 1 1 0 0 0
1 1 1 0 0 0 1 1 1 1 0 0 0 1 1 0 0 0 1 1 1 1 1 1 1 1 1 1 1 1 2 2 1 1 1 1 1 1 1 1 1 1 1 1 1 1 0 0 0
1 1 1 0 0 0 1 1 0 0 0 0 0 1 1 1 1 1 1 1 1 1 1 1 1 1 1 1 1 2 2 2 1 1 1 1 1 1 1 1 1 1 1 1 1 1 0 0 0
1 1 1 0 0 1 1 0 0 0 0 0 1 1 1 1 1 1 1 1 1 1 1 1 1 1 1 1 1 2 2 1 1 1 1 1 1 1 1 1 1 1 1 1 1 1 1 1 1
1 1 1 1 1 1 0 0 0 0 1 1 1 1 1 1 1 1 1 1 1 1 1 1 1 1 1 1 1 1 1 1 1 1 1 1 1 1 1 1 1 1 1 1 1 1 1 1 1
0 0 0 0 0 0 0 0 0 0 1 1 1 1 2 1 1 0 0 0 1 1 1 1 1 1 1 1 1 1 1 1 1 1 1 1 1 1 1 1 1 1 1 1 1 1 1 0 0
0 0 0 0 0 0 0 1 0 0 1 1 1 2 2 2 1 1 0 0 0 1 1 1 1 1 1 1 1 0 0 0 0 0 0 0 1 1 1 1 1 1 0 0 0 1 0 0 0
0 0 0 0 0 0 1 1 1 1 1 1 1 2 2 2 1 1 1 0 0 0 1 1 1 1 1 1 0 0 0 0 0 0 0 0 0 0 0 0 0 0 0 0 0 0 0 0 0
0 0 0 0 0 0 1 1 1 1 1 0 1 2 2 1 1 1 1 1 1 1 1 1 1 1 1 1 0 0 0 0 0 0 0 0 0 0 0 0 0 0 0 0 0 0 0 0 0
0 0 0 0 0 0 0 1 1 1 1 0 1 1 1 1 1 1 1 1 1 1 1 1 1 1 1 0 0 0 0 0 0 0 0 0 0 1 1 0 0 0 0 0 0 0 0 0 0
0 0 0 0 0 0 0 1 1 1 1 0 1 1 1 1 1 0 1 1 1 1 1 1 1 1 1 0 0 0 0 0 0 0 0 0 0 1 1 1 0 0 1 1 1 1 1 0 0
0 0 0 0 0 0 0 1 1 1 1 0 1 1 1 1 1 0 0 1 1 1 1 1 1 1 1 0 0 0 0 0 0 0 0 0 0 0 1 1 1 0 1 1 1 1 1 0 0
0 0 0 0 0 0 0 1 1 1 1 0 1 1 1 1 1 1 0 0 1 1 1 1 1 1 1 1 0 0 0 0 0 0 0 0 0 0 0 0 1 1 1 1 1 1 1 0 0
0 0 0 0 0 0 0 1 1 1 1 1 1 1 1 1 1 1 1 1 1 1 1 1 1 1 1 1 1 0 0 0 0 0 0 0 0 0 0 0 0 1 1 1 1 1 1 0 0
0 0 0 0 0 0 0 0 1 1 1 1 1 1 1 1 1 1 1 1 1 1 1 2 2 2 1 1 1 1 1 0 0 1 1 0 0 0 0 0 0 1 1 1 1 1 1 1 0
0 0 0 0 0 0 0 0 1 1 1 1 1 1 1 1 1 1 1 1 1 1 1 2 2 2 2 2 1 1 1 1 1 1 1 1 0 0 0 0 0 0 1 1 1 1 1 1 0
0 0 0 0 0 0 0 0 0 1 1 0 0 0 1 1 1 1 1 1 1 1 1 2 2 2 2 2 2 2 1 1 1 1 1 1 1 0 0 0 0 0 0 1 1 1 1 1 0
0 0 0 0 0 0 0 0 0 0 0 0 0 0 0 1 1 1 1 1 1 1 1 1 2 2 2 3 2 2 2 1 1 1 1 1 1 0 0 0 0 0 0 0 0 1 1 1 1
0 0 0 0 0 0 0 0 0 0 0 0 0 0 0 1 1 1 1 1 1 1 1 1 2 2 3 3 3 3 2 1 1 1 1 1 1 1 0 0 0 0 0 0 0 0 1 1 1
0 0 0 0 0 0 0 0 0 0 0 0 0 0 0 1 1 1 1 1 1 1 1 1 2 2 3 3 3 3 2 2 1 1 1 1 1 1 1 1 0 0 0 0 0 0 0 1 1
0 0 0 0 0 0 0 0 0 0 0 0 0 0 0 1 1 1 1 1 1 1 1 2 2 2 3 3 3 2 2 1 1 1 1 1 1 1 1 1 1 1 0 0 0 0 0 0 0
0 0 0 0 0 0 0 0 0 0 0 0 1 1 0 1 1 1 1 1 1 2 2 2 2 2 2 2 2 2 2 1 1 1 1 1 1 1 1 1 1 1 1 0 0 0 0 0 0
0 0 0 0 0 0 0 0 0 0 1 1 1 1 1 1 1 1 1 1 1 2 2 2 2 2 2 2 2 2 2 2 1 1 1 1 1 1 1 1 0 1 1 0 0 0 0 0 0
0 0 0 0 0 0 0 0 0 0 1 1 1 1 1 1 1 1 1 1 1 1 1 1 1 2 2 2 2 3 2 2 1 1 1 1 1 1 1 1 1 0 0 0 0 0 0 0 0
0 0 0 0 0 0 0 0 0 0 0 1 1 1 1 1 1 1 1 1 1 1 1 1 1 1 2 2 2 2 3 2 1 1 1 1 1 1 1 1 1 1 1 0 0 0 0 0 0
0 0 0 0 0 0 0 0 0 0 0 0 1 1 1 1 1 1 1 1 1 1 1 1 1 1 1 1 2 2 2 2 1 1 1 1 1 1 1 1 1 1 1 0 0 0 0 0 0
Wind_Speed
10 11 7 2 2 1 4 6 7 6 7 9 8 9 11 12 9 7 3 4 8 9 10 9 9 9 9 9 9 9 9 9 9 9 10 10 10 11 11 11 11 11 11 11 11 11 11 11 10
10 7 3 2 1 2 5 7 8 8 7 5 7 10 11 12 11 8 4 4 8 10 9 9 9 9 9 9 9 9 9 9 9 9 9 10 10 11 11 11 11 11 11 11 11 10 10 10 9
12 7 3 2 1 4 6 7 8 8 6 5 7 10 10 8 9 6 4 6 10 10 10 9 9 9 9 9 9 9 9 9 9 9 9 10 10 11 11 10 10 10 11 11 10 10 9 9 9
6 3 2 0 4 7 7 7 7 7 5 5 7 9 10 9 7 7 6 8 10 10 10 9 9 9 9 8 8 9 9 9 9 9 10 10 10 10 10 10 10 10 10 10 10 9 9 9 9
3 2 1 2 5 6 6 7 7 6 6 8 10 12 11 10 10 9 6 7 9 9 10 10 10 9 9 8 8 8 9 9 9 9 9 9 10 10 10 10 10 10 10 10 9 9 9 8 8
2 2 1 3 6 6 5 5 6 7 8 8 9 11 9 9 7 6 6 7 8 8 10 9 10 10 9 9 9 9 9 9 9 9 9 10 10 10 10 10 10 10 10 9 9 9 9 8 8
1 2 1 4 5 5 5 5 5 6 6 6 7 9 8 8 6 6 6 6 6 6 8 8 8 9 9 10 11 11 11 10 9 9 9 9 10 10 10 11 10 10 9 9 8 8 8 7 7
2 2 1 3 4 5 5 5 5 5 6 6 5 7 8 9 7 6 6 6 5 5 5 7 7 8 8 7 10 10 10 9 8 7 7 8 8 9 10 10 10 9 8 7 7 7 7 6 6
2 1 1 3 3 4 4 5 5 5 6 6 8 11 11 11 9 7 5 5 5 5 5 5 6 6 7 7 8 8 8 7 6 5 5 4 4 5 6 8 9 8 7 6 5 5 4 4 4
1 0 1 3 3 4 4 4 4 5 6 6 10 12 12 9 8 7 6 5 5 4 4 5 6 6 6 6 5 3 4 4 3 3 4 2 3 4 6 7 7 6 5 4 3 3 2 2 1
2 1 1 3 4 3 3 3 4 4 4 5 9 11 10 9 7 6 6 6 6 4 4 5 5 6 5 4 3 2 2 2 2 3 4 3 3 3 4 3 3 2 2 1 1 1 1 2 2
2 1 0 3 3 2 2 3 3 4 4 5 8 11 10 8 7 6 6 6 6 5 4 4 5 5 5 5 3 2 2 2 2 2 4 3 2 2 3 2 2 2 1 1 1 1 2 3 3
2 2 1 2 2 1 2 3 2 4 4 5 8 10 8 7 6 6 7 7 7 5 4 4 4 5 5 5 2 3 3 2 3 2 2 4 2 2 2 3 2 2 2 2 2 2 3 4 4
1 2 2 2 3 2 2 2 3 3 3 5 7 8 7 6 6 6 7 7 7 6 5 4 4 5 6 4 2 3 3 2 3 2 2 4 2 2 3 3 3 2 2 2 2 3 3 3 3
3 3 3 3 4 3 2 2 4 5 4 5 6 6 7 5 5 5 6 6 7 7 6 5 4 4 5 4 4 4 3 3 2 2 2 3 3 3 3 2 2 2 2 3 3 3 3 3 3
6 5 4 4 5 5 4 3 4 6 5 4 5 6 5 6 5 4 6 6 7 7 7 6 4 4 5 4 3 3 3 3 2 2 2 3 3 4 3 2 2 2 2 2 2 2 3 3 3
5 5 5 4 5 4 3 2 3 5 5 5 6 7 7 7 6 4 4 5 6 7 8 7 5 5 5 4 3 3 3 3 2 2 2 2 3 3 3 2 1 2 2 2 2 3 3 3 3
3 4 3 3 4 4 3 3 4 5 6 5 5 6 7 7 5 5 3 4 5 5 7 7 5 5 5 3 3 2 2 2 2 2 2 2 2 3 3 1 2 3 2 2 2 3 2 1 1
4 4 3 2 3 3 3 3 4 5 5 5 5 5 5 6 6 6 4 4 4 4 5 7 6 4 4 3 2 2 2 1 2 2 2 1 1 2 2 1 2 2 2 2 2 2 2 1 1
5 5 3 2 3 3 3 3 3 4 4 4 3 3 4 5 6 5 5 4 4 4 4 6 5 5 5 3 2 2 2 1 2 2 2 1 1 1 2 2 2 3 2 1 1 2 1 1 1
7 4 3 2 4 5 4 5 6 5 4 4 3 3 4 4 4 5 4 4 3 3 3 3 4 5 5 4 2 2 2 1 1 2 1 1 1 1 1 1 2 2 2 2 1 2 2 1 1
5 3 3 4 5 4 5 3 5 7 6 5 4 3 4 4 4 4 3 4 3 3 3 3 4 4 5 5 3 3 3 2 2 2 2 2 2 2 1 1 1 2 2 2 2 2 2 2 1
3 4 6 8 7 8 8 6 4 8 8 7 6 5 4 4 4 4 4 4 4 3 2 2 3 3 3 3 4 3 2 1 1 2 3 2 2 2 2 2 2 1 2 3 2 2 2 1 1
4 6 9 9 7 9 9 7 3 6 7 7 7 6 6 5 5 5 4 4 3 4 2 2 2 2 3 3 3 3 3 2 2 2 2 2 2 2 3 2 2 2 2 2 3 2 2 1 1
6 6 4 4 6 6 6 4 2 6 6 6 6 5 5 4 4 4 4 3 3 4 3 2 2 2 3 3 4 4 4 3 3 3 3 2 1 2 3 2 2 2 2 2 2 2 2 2 2
7 7 5 4 4 3 2 2 5 8 6 6 5 5 4 3 3 4 3 3 3 3 3 2 3 3 3 3 4 3 3 3 2 2 2 2 2 2 2 2 3 3 2 2 2 2 2 2 2
7 7 7 7 9 7 3 4 6 7 7 6 6 5 4 3 4 4 3 3 3 3 2 2 2 2 3 3 2 2 2 2 2 2 2 2 2 1 2 2 2 2 2 2 2 2 2 2 2
8 7 5 5 5 6 4 4 5 8 7 7 6 6 5 4 4 4 4 3 2 2 2 2 2 2 2 2 2 2 2 2 2 2 2 2 2 2 1 1 1 2 2 2 2 2 2 3 2
8 8 7 5 6 5 4 1 3 6 6 6 6 5 5 5 4 4 3 2 2 2 2 1 1 1 1 1 1 2 2 2 1 2 2 2 2 2 2 2 1 1 1 2 1 2 2 2 2
6 8 8 6 6 5 5 0 3 4 4 5 5 5 5 5 4 4 3 3 2 2 2 1 0 0 1 1 1 1 1 2 1 1 1 2 2 2 2 2 2 1 1 1 1 1 2 2 3
Wind_Direction
270 251 246 256 264 206 70 72 75 63 57 49 44 58 64 54 54 83 122 85 94 98 99 85 71 69 66 64 64 65 67 66 68 69 69 70 74 74 73 74 76 77 77 75 73 72 67 67 67
281 271 268 244 240 90 80 76 74 67 68 65 58 61 70 68 74 93 106 93 97 94 91 82 74 70 68 66 66 68 70 68 69 73 74 75 78 78 77 75 76 77 78 78 77 76 72 70 69
267 267 266 263 31 74 88 89 88 83 72 69 73 63 57 67 76 93 108 104 91 90 92 88 80 72 68 68 71 74 75 73 72 75 78 80 81 80 79 78 78 80 81 81 80 77 75 72 69
262 260 243 152 64 70 89 101 101 97 82 69 78 78 70 63 82 101 108 102 98 99 99 97 89 79 72 72 78 83 83 79 77 78 81 83 83 82 80 78 78 79 81 82 81 80 76 72 69
250 254 222 99 79 78 82 91 96 94 81 74 80 90 86 80 92 105 105 102 106 106 108 109 101 90 81 79 83 90 91 86 83 84 85 86 85 85 83 79 77 78 78 79 80 81 80 74 68
275 261 197 102 95 90 88 89 95 87 86 91 98 101 97 105 101 106 105 100 103 109 112 114 112 102 91 83 88 96 99 95 92 91 91 91 88 85 83 81 79 79 78 78 79 81 80 73 65
273 289 123 107 103 95 86 80 80 80 83 78 92 102 113 114 112 118 104 94 97 101 114 122 125 116 101 91 93 100 103 104 102 101 99 98 96 92 88 85 82 82 82 83 85 85 82 75 66
284 297 68 94 101 95 97 98 92 85 83 81 82 100 122 126 133 125 113 109 109 110 109 121 125 126 122 111 106 110 113 115 117 116 113 112 110 103 94 90 85 85 87 89 93 96 92 85 76
281 310 10 95 101 104 109 103 101 97 94 85 81 94 116 127 134 131 128 121 112 110 112 112 117 120 120 119 121 128 130 131 132 137 136 127 121 114 102 99 99 94 93 98 105 113 113 108 98
191 10 39 75 96 107 118 117 117 117 111 105 103 106 118 133 141 143 139 130 120 111 113 121 119 112 109 112 125 134 128 143 150 133 131 119 101 101 107 117 114 113 111 120 139 160 169 175 132
145 170 44 67 66 92 118 119 119 119 123 123 128 129 134 145 149 149 143 133 125 125 115 112 114 111 109 105 110 99 103 123 113 105 106 93 96 115 113 123 125 121 115 93 142 186 165 114 98
139 144 71 79 80 90 104 104 94 102 103 120 132 138 144 155 153 145 135 124 115 108 110 109 111 110 110 104 103 109 102 96 91 97 106 98 94 98 103 102 101 94 71 45 38 53 73 75 74
164 152 137 110 124 154 119 108 102 91 97 116 130 137 149 157 142 136 132 128 123 122 113 98 104 106 104 99 111 100 89 88 91 55 90 102 97 94 100 97 86 80 69 63 45 54 66 66 58
193 170 178 183 169 166 129 142 136 102 114 137 142 144 152 149 143 144 138 131 128 129 119 111 103 103 106 112 110 97 97 85 82 70 79 90 89 85 82 90 83 72 66 65 71 77 87 84 78
205 215 215 195 183 178 153 183 149 149 158 161 155 147 146 148 153 145 134 136 134 134 126 112 101 99 101 103 97 98 100 92 84 71 71 87 81 80 83 85 86 80 66 65 61 61 75 92 93
224 219 221 210 196 185 203 192 149 153 164 172 164 152 147 152 167 141 139 142 137 135 127 124 120 106 97 94 92 96 95 88 81 74 58 74 77 81 75 75 81 83 71 67 72 67 67 69 73
223 228 217 190 189 192 204 194 154 167 170 183 173 161 166 166 159 143 143 136 129 130 131 134 126 119 106 103 103 88 95 95 91 78 56 59 76 88 90 78 69 83 78 68 70 67 68 68 70
232 230 219 191 183 193 186 186 183 181 185 187 172 169 168 162 159 146 139 122 122 129 133 132 128 132 121 111 106 93 94 98 94 89 78 49 71 88 95 106 89 79 82 70 74 81 71 71 81
265 261 253 223 182 195 203 192 191 174 184 179 174 167 164 162 162 146 141 137 137 135 135 131 142 140 128 128 128 123 121 125 113 114 103 73 74 102 108 89 92 83 87 92 88 93 84 60 73
257 255 253 243 212 207 211 215 203 182 179 167 161 154 157 156 151 141 153 158 151 143 142 140 145 141 131 131 141 142 126 137 126 126 124 133 113 99 119 138 125 119 110 100 99 101 91 39 55
248 250 252 251 264 248 226 230 193 172 161 148 163 165 152 149 146 147 161 153 149 148 148 138 144 143 142 148 134 109 104 96 119 146 145 173 166 140 135 119 129 146 147 143 142 124 126 144 314
260 283 272 252 254 255 229 245 199 162 160 167 174 182 165 158 153 151 158 150 155 157 146 149 154 152 146 144 141 153 159 170 179 163 163 182 174 154 147 150 178 171 156 158 175 153 153 152 222
275 284 268 258 255 264 247 250 195 163 171 174 173 176 175 158 163 162 155 154 163 145 134 145 142 139 138 141 150 166 172 179 161 147 153 169 167 171 175 177 196 192 172 175 173 153 160 173 187
269 264 258 248 247 252 239 239 202 172 170 165 167 173 176 167 166 167 156 154 142 121 127 141 137 139 140 149 159 180 182 173 163 165 168 181 180 189 193 190 187 187 186 188 173 167 175 191 204
242 257 259 233 218 235 215 220 156 129 131 142 153 159 160 156 159 148 138 138 134 129 136 152 154 158 164 182 190 194 181 179 187 185 181 182 189 191 194 186 185 195 198 188 162 171 181 194 201
239 244 258 282 284 284 225 195 123 115 113 121 129 127 130 140 143 135 133 130 132 136 144 174 180 184 184 199 210 199 172 170 184 180 169 180 186 189 189 188 190 193 185 185 171 174 194 193 193
250 245 257 277 285 280 220 150 129 132 135 136 139 142 149 141 133 131 127 130 128 136 150 185 185 196 192 201 201 193 173 171 181 176 174 173 176 181 177 184 197 186 179 180 169 181 203 202 201
250 272 269 255 273 277 265 193 167 166 161 155 153 154 151 144 139 127 122 125 130 137 158 187 191 206 202 187 190 192 167 177 171 169 172 162 158 151 161 189 190 183 173 171 186 193 210 205 205
224 241 257 270 265 277 288 326 96 145 153 156 156 152 149 143 130 126 126 133 127 117 121 125 176 161 178 204 196 187 169 171 172 177 172 162 167 165 177 187 178 173 172 163 168 210 221 210 208
247 249 251 256 271 278 278 244 106 121 130 135 139 142 143 139 135 136 138 140 134 131 136 146 119 139 166 181 220 186 149 163 172 170 173 166 159 166 173 176 171 170 164 154 167 209 232 230 224